UNSW-ECO (42723 NORAD) Tracking and Keplerian Element Data

This shows tracking and keplerian element data for the satellite.

Feedback or suggestion? Click here.




ElementValue
Catalog42723
NameUNSW-ECO
Epoch Orbit8420
Epoch Day316.83776344
Epoch Year2018
RAAN299.9777
Inclination51.6356
Eccentricity0.0007776
Argument of Perigee82.709
Mean Anonmoly277.4804
Mean Motion16.00267591
Decay Rate0.00322753
L11 42723U 98067MC 18316.83776344 .00322753 55181-4 60742-3 0 9997
L22 42723 51.6356 299.9777 0007776 82.7090 277.4804 16.00267591 84202

Live tracking and technical data element details for UNSW-ECO (NORAD 42723). UNSW-ECO can be tracked NOW for your location showing map with azimuth and elevation plus other details from your city location.

Track the satellite on the map from your city or location and see movement details for azimuth, elevation, latitude, longitude, range, height, and movement on the map or in text.







IsCatalogInMostPopularTable: catalog: 42723, numindb: 144
Update: records affected: 1



GetName: 42723 UNSW-ECO

Hit Count: updated at: Tue, 13 Nov 2018 23:08:02 GMT